• Em Portugal
  • Lista de países
  • Para 7 dias
  • Temperatura da água
  • Mapas de satélite
  • Mapa do tempo
  • Widgets de tempo
  • user-avatar
    Iniciar Sessão

    Previsão horária em Amar

    Hoje, 20 Setembro, Quinta-feira

    Tempo Temperatura Precipitação Vento Pressão Humidade
    00:00 +35°C° 0 mm 1 m/s 751 mmHg 59%
    01:00 +34°C° 0 mm 1 m/s 751 mmHg 60%
    02:00 +34°C° 0 mm 1 m/s 751 mmHg 61%
    03:00 +34°C° 0 mm 1 m/s 751 mmHg 62%
    04:00 +33°C° 0 mm 1 m/s 751 mmHg 63%
    05:00 +33°C° 0 mm 1 m/s 751 mmHg 63%
    06:00 +33°C° 0 mm 1 m/s 751 mmHg 64%
    07:00 +34°C° 0 mm 1 m/s 751 mmHg 59%
    08:00 +36°C° 0 mm 1 m/s 752 mmHg 55%
    09:00 +37°C° 0 mm 1 m/s 752 mmHg 50%
    10:00 +39°C° 0 mm 1 m/s 752 mmHg 46%
    11:00 +40°C° 0 mm 2 m/s 751 mmHg 42%
    12:00 +41°C° 0 mm 2 m/s 751 mmHg 37%
    13:00 +42°C° 0 mm 3 m/s 751 mmHg 37%
    14:00 +43°C° 0 mm 4 m/s 751 mmHg 36%
    15:00 +43°C° 0 mm 5 m/s 750 mmHg 36%
    16:00 +41°C° 0 mm 5 m/s 750 mmHg 43%
    17:00 +40°C° 0 mm 5 m/s 750 mmHg 50%
    18:00 +37°C° 0 mm 5 m/s 750 mmHg 57%
    19:00 +37°C° 0 mm 4 m/s 751 mmHg 60%
    20:00 +36°C° 0 mm 4 m/s 751 mmHg 62%
    21:00 +36°C° 0 mm 3 m/s 751 mmHg 65%
    22:00 +35°C° 0 mm 2 m/s 751 mmHg 66%
    23:00 +35°C° 0 mm 2 m/s 751 mmHg 67%

    Amanhã, 21 Setembro, Sexta-feira

    Tempo Temperatura Precipitação Vento Pressão Humidade
    00:00 +33°C° 0 mm 1 m/s 751 mmHg 68%
    01:00 +33°C° 0 mm 1 m/s 751 mmHg 69%
    02:00 +33°C° 0 mm 1 m/s 750 mmHg 69%
    03:00 +32°C° 0 mm 1 m/s 750 mmHg 70%
    04:00 +32°C° 0 mm 1 m/s 751 mmHg 69%
    05:00 +32°C° 0 mm 1 m/s 751 mmHg 68%
    06:00 +32°C° 0 mm 1 m/s 751 mmHg 67%
    07:00 +34°C° 0 mm 1 m/s 752 mmHg 61%
    08:00 +36°C° 0 mm 2 m/s 752 mmHg 54%
    09:00 +37°C° 0 mm 2 m/s 753 mmHg 48%
    10:00 +39°C° 0 mm 2 m/s 752 mmHg 44%
    11:00 +40°C° 0 mm 1 m/s 752 mmHg 40%
    12:00 +41°C° 0 mm 1 m/s 752 mmHg 36%
    13:00 +41°C° 0 mm 2 m/s 752 mmHg 35%
    14:00 +41°C° 0 mm 2 m/s 751 mmHg 35%
    15:00 +42°C° 0 mm 3 m/s 751 mmHg 35%
    16:00 +40°C° 0 mm 3 m/s 751 mmHg 40%
    17:00 +40°C° 0 mm 4 m/s 751 mmHg 45%
    18:00 +38°C° 0 mm 4 m/s 751 mmHg 50%
    19:00 +37°C° 0 mm 3 m/s 751 mmHg 53%
    20:00 +37°C° 0 mm 3 m/s 752 mmHg 57%
    21:00 +36°C° 0 mm 3 m/s 752 mmHg 60%
    22:00 +35°C° 0 mm 2 m/s 752 mmHg 61%
    23:00 +35°C° 0 mm 2 m/s 752 mmHg 62%

    Depois de amanhã, 22 Setembro, Sábado

    Tempo Temperatura Precipitação Vento Pressão Humidade
    00:00 +33°C° 0 mm 1 m/s 752 mmHg 64%
    01:00 +33°C° 0 mm 1 m/s 752 mmHg 64%
    02:00 +32°C° 0 mm 1 m/s 751 mmHg 64%
    03:00 +32°C° 0 mm 1 m/s 751 mmHg 65%
    04:00 +30°C° 0 mm 0 m/s 752 mmHg 64%
    05:00 +30°C° 0 mm 0 m/s 752 mmHg 64%
    06:00 +30°C° 0 mm 0 m/s 752 mmHg 63%
    07:00 +32°C° 0 mm 0 m/s 753 mmHg 57%
    08:00 +35°C° 0 mm 1 m/s 753 mmHg 51%
    09:00 +37°C° 0 mm 1 m/s 753 mmHg 44%
    10:00 +39°C° 0 mm 1 m/s 753 mmHg 40%
    11:00 +41°C° 0 mm 1 m/s 752 mmHg 36%
    12:00 +42°C° 0 mm 1 m/s 752 mmHg 31%
    13:00 +42°C° 0 mm 2 m/s 752 mmHg 30%
    14:00 +44°C° 0 mm 3 m/s 751 mmHg 28%
    15:00 +44°C° 0 mm 3 m/s 751 mmHg 26%
    16:00 +42°C° 0 mm 4 m/s 751 mmHg 32%
    17:00 +41°C° 0 mm 4 m/s 751 mmHg 38%
    18:00 +38°C° 0 mm 4 m/s 751 mmHg 43%
    19:00 +38°C° 0 mm 4 m/s 752 mmHg 47%
    20:00 +37°C° 0 mm 3 m/s 752 mmHg 51%
    21:00 +36°C° 0 mm 3 m/s 752 mmHg 54%
    22:00 +35°C° 0 mm 2 m/s 752 mmHg 56%
    23:00 +35°C° 0 mm 2 m/s 752 mmHg 58%

    23 Setembro, Domingo

    Tempo Temperatura Precipitação Vento Pressão Humidade
    00:00 +33°C° 0 mm 1 m/s 752 mmHg 60%
    01:00 +33°C° 0 mm 1 m/s 752 mmHg 60%
    02:00 +33°C° 0 mm 1 m/s 752 mmHg 61%
    03:00 +32°C° 0 mm 1 m/s 752 mmHg 61%
    04:00 +32°C° 0 mm 1 m/s 752 mmHg 60%
    05:00 +32°C° 0 mm 1 m/s 752 mmHg 59%
    06:00 +32°C° 0 mm 1 m/s 752 mmHg 58%
    07:00 +34°C° 0 mm 1 m/s 753 mmHg 53%
    08:00 +33°C° 0 mm 0 m/s 753 mmHg 47%
    09:00 +35°C° 0 mm 0 m/s 753 mmHg 42%
    10:00 +39°C° 0 mm 1 m/s 753 mmHg 39%
    11:00 +40°C° 0 mm 1 m/s 753 mmHg 35%
    12:00 +41°C° 0 mm 1 m/s 753 mmHg 32%
    13:00 +41°C° 0 mm 2 m/s 752 mmHg 31%
    14:00 +42°C° 0 mm 3 m/s 752 mmHg 30%
    15:00 +42°C° 0 mm 4 m/s 751 mmHg 30%
    16:00 +41°C° 0 mm 4 m/s 751 mmHg 34%
    17:00 +40°C° 0 mm 4 m/s 752 mmHg 38%
    18:00 +38°C° 0 mm 4 m/s 752 mmHg 42%
    19:00 +37°C° 0 mm 4 m/s 752 mmHg 45%
    20:00 +37°C° 0 mm 3 m/s 752 mmHg 47%
    21:00 +36°C° 0 mm 3 m/s 752 mmHg 50%
    22:00 +36°C° 0 mm 3 m/s 752 mmHg 50%
    23:00 +36°C° 0 mm 3 m/s 752 mmHg 51%

    24 Setembro, Segunda-feira

    Tempo Temperatura Precipitação Vento Pressão Humidade
    00:00 +35°C° 0 mm 3 m/s 751 mmHg 52%
    01:00 +35°C° 0 mm 2 m/s 751 mmHg 52%
    02:00 +35°C° 0 mm 2 m/s 751 mmHg 53%
    03:00 +33°C° 0 mm 1 m/s 751 mmHg 53%
    04:00 +34°C° 0 mm 2 m/s 751 mmHg 52%
    05:00 +34°C° 0 mm 2 m/s 752 mmHg 51%
    06:00 +34°C° 0 mm 2 m/s 752 mmHg 51%
    07:00 +36°C° 0 mm 2 m/s 752 mmHg 46%
    08:00 +37°C° 0 mm 3 m/s 753 mmHg 40%
    09:00 +39°C° 0 mm 3 m/s 753 mmHg 35%
    10:00 +40°C° 0 mm 3 m/s 753 mmHg 32%
    11:00 +41°C° 0 mm 2 m/s 752 mmHg 29%
    12:00 +42°C° 0 mm 1 m/s 752 mmHg 26%
    13:00 +43°C° 0 mm 2 m/s 751 mmHg 26%
    14:00 +44°C° 0 mm 3 m/s 751 mmHg 25%
    15:00 +44°C° 0 mm 4 m/s 750 mmHg 24%
    16:00 +43°C° 0 mm 4 m/s 750 mmHg 30%
    17:00 +41°C° 0 mm 4 m/s 751 mmHg 36%
    18:00 +38°C° 0 mm 4 m/s 751 mmHg 42%
    19:00 +38°C° 0 mm 4 m/s 751 mmHg 43%
    20:00 +37°C° 0 mm 3 m/s 751 mmHg 45%
    21:00 +37°C° 0 mm 3 m/s 752 mmHg 46%
    22:00 +37°C° 0 mm 3 m/s 751 mmHg 48%
    23:00 +36°C° 0 mm 2 m/s 751 mmHg 49%

    25 Setembro, Terça-feira

    Tempo Temperatura Precipitação Vento Pressão Humidade
    00:00 +36°C° 0 mm 2 m/s 751 mmHg 51%
    01:00 +35°C° 0 mm 2 m/s 751 mmHg 53%
    02:00 +35°C° 0 mm 2 m/s 751 mmHg 54%
    03:00 +35°C° 0 mm 2 m/s 751 mmHg 56%
    04:00 +35°C° 0 mm 2 m/s 751 mmHg 55%
    05:00 +35°C° 0 mm 3 m/s 751 mmHg 54%
    06:00 +35°C° 0 mm 3 m/s 752 mmHg 54%
    07:00 +36°C° 0 mm 3 m/s 752 mmHg 48%
    08:00 +38°C° 0 mm 3 m/s 752 mmHg 42%
    09:00 +39°C° 0 mm 3 m/s 753 mmHg 36%
    10:00 +40°C° 0 mm 3 m/s 752 mmHg 32%
    11:00 +42°C° 0 mm 3 m/s 752 mmHg 28%
    12:00 +44°C° 0 mm 3 m/s 752 mmHg 25%
    13:00 +44°C° 0 mm 4 m/s 751 mmHg 24%
    14:00 +44°C° 0 mm 4 m/s 751 mmHg 23%
    15:00 +45°C° 0 mm 5 m/s 750 mmHg 22%
    16:00 +43°C° 0 mm 4 m/s 750 mmHg 27%
    17:00 +41°C° 0 mm 4 m/s 751 mmHg 32%
    18:00 +38°C° 0 mm 4 m/s 751 mmHg 38%
    19:00 +38°C° 0 mm 4 m/s 751 mmHg 40%
    20:00 +37°C° 0 mm 4 m/s 751 mmHg 43%
    21:00 +37°C° 0 mm 3 m/s 751 mmHg 45%
    22:00 +36°C° 0 mm 3 m/s 751 mmHg 47%
    23:00 +36°C° 0 mm 2 m/s 751 mmHg 49%
    Mostrar mais